Weather History for KOLZ - September, 2012

Change the Weather History Date:

Monday, September 10, 2012

  Actual Average Record
Temperature  
Mean Temperature 62 °F -  
Max Temperature 77 °F 75 °F 93 °F (2013)
Min Temperature 46 °F 53 °F 38 °F (1967)
Degree Days  
Heating Degree Days 4    
Growing Degree Days 12 (Base 50)    
Moisture  
Dew Point 44 °F    
Average Humidity 59    
Maximum Humidity 93    
Minimum Humidity 26    
Precipitation  
Precipitation 0.00 in - - ()
Sea Level Pressure  
Sea Level Pressure 30.11 in    
Wind  
Wind Speed 8 mph (SSE)    
Max Wind Speed 20 mph    
Max Gust Speed 24 mph    
Visibility 10 miles    
Events      
Averages and records for this station are not official NWS values.
T = Trace of Precipitation, MM = Missing Value Source: NWS Daily Summary

Daily Weather History Graph

Daily Weather History Graph

Search for Another Location

Airport or City:

Trip Planner

Search our weather history database for the weather conditions in past years. The results will help you decide how hot, cold, wet, or windy it might be!

Date:

Astronomy

Sep. 10, 2012 Rise Set
Actual Time 6:42 AM CDT 7:25 PM CDT
Civil Twilight 6:14 AM CDT 7:54 PM CDT
Nautical Twilight 5:40 AM CDT 8:27 PM CDT
Astronomical Twilight 5:05 AM CDT 9:02 PM CDT
Moon 12:58 AM CDT (9/10) 4:01 PM CDT (9/10)
Length of Visible Light 13h 39m
Length of Day
12h 42m
Waning Crescent, 30% of the Moon is Illuminated
Sep 10
Waning Crescent
Sep 15
New
Sep 22
First Quarter
Sep 29
Full
Oct 8
Last Quarter

Hourly Weather History & Observations

Time (CDT) Temp. Windchill Dew Point Humidity Pressure Visibility Wind Dir Wind Speed Gust Speed Precip Events Conditions
12:15 AM 50.0 °F - 44.6 °F 82% 30.16 in 10.0 mi SE 5.8 mph - N/A   Clear
12:16 AM 50.0 °F - 46.4 °F 87% 30.16 in 10.0 mi SE 5.8 mph - N/A   Clear
12:35 AM 50.0 °F - 44.6 °F 82% 30.16 in 10.0 mi SE 6.9 mph - N/A   Clear
12:36 AM 50.0 °F - 44.6 °F 82% 30.16 in 10.0 mi SE 6.9 mph - N/A   Clear
12:55 AM 50.0 °F - 44.6 °F 82% 30.16 in 10.0 mi SE 5.8 mph - N/A   Clear
12:56 AM 50.0 °F - 44.6 °F 82% 30.16 in 10.0 mi SE 5.8 mph - N/A   Clear
1:15 AM 50.0 °F - 44.6 °F 82% 30.16 in 10.0 mi SSE 5.8 mph - N/A   Clear
1:17 AM 50.0 °F - 44.6 °F 82% 30.16 in 10.0 mi SSE 5.8 mph - N/A   Clear
1:35 AM 50.0 °F - 44.6 °F 82% 30.16 in 10.0 mi SE 5.8 mph - N/A   Clear
1:36 AM 50.0 °F - 44.6 °F 82% 30.16 in 10.0 mi SE 5.8 mph - N/A   Clear
1:55 AM 50.0 °F - 42.8 °F 76% 30.16 in 10.0 mi SSE 6.9 mph - N/A   Clear
1:57 AM 50.0 °F - 44.6 °F 82% 30.16 in 10.0 mi SE 5.8 mph - N/A   Clear
2:15 AM 48.2 °F - 42.8 °F 82% 30.17 in 10.0 mi SE 5.8 mph - N/A   Clear
2:19 AM 48.2 °F - 44.6 °F 87% 30.17 in 10.0 mi SE 5.8 mph - N/A   Clear
2:35 AM 48.2 °F - 44.6 °F 87% 30.16 in 10.0 mi SE 5.8 mph - N/A   Clear
2:37 AM 48.2 °F - 44.6 °F 87% 30.16 in 10.0 mi SE 5.8 mph - N/A   Clear
2:55 AM 48.2 °F - 44.6 °F 87% 30.16 in 10.0 mi SE 5.8 mph - N/A   Clear
2:56 AM 48.2 °F - 44.6 °F 87% 30.16 in 10.0 mi SE 5.8 mph - N/A   Clear
3:15 AM 48.2 °F - 44.6 °F 87% 30.17 in 10.0 mi SE 5.8 mph - N/A   Clear
3:16 AM 48.2 °F - 44.6 °F 87% 30.17 in 10.0 mi SE 5.8 mph - N/A   Clear
3:35 AM 48.2 °F - 44.6 °F 87% 30.16 in 10.0 mi SE 5.8 mph - N/A   Clear
3:36 AM 48.2 °F - 44.6 °F 87% 30.17 in 10.0 mi SE 5.8 mph - N/A   Clear
3:55 AM 46.4 °F 43.5 °F 44.6 °F 93% 30.17 in 10.0 mi SE 5.8 mph - N/A   Clear
3:57 AM 48.2 °F - 44.6 °F 87% 30.17 in 10.0 mi SE 5.8 mph - N/A   Clear
4:15 AM 46.4 °F 43.5 °F 44.6 °F 93% 30.17 in 10.0 mi SSE 5.8 mph - N/A   Clear
4:16 AM 48.2 °F - 44.6 °F 87% 30.17 in 10.0 mi SSE 5.8 mph - N/A   Clear
4:35 AM 46.4 °F 43.5 °F 44.6 °F 93% 30.17 in 10.0 mi SSE 5.8 mph - N/A   Clear
4:37 AM 48.2 °F - 44.6 °F 87% 30.17 in 10.0 mi SSE 4.6 mph - N/A   Clear
4:55 AM 48.2 °F - 44.6 °F 87% 30.17 in 10.0 mi SSE 5.8 mph - N/A   Clear
4:57 AM 48.2 °F - 44.6 °F 87% 30.17 in 10.0 mi SSE 5.8 mph - N/A   Clear
5:15 AM 46.4 °F 43.5 °F 44.6 °F 93% 30.17 in 10.0 mi SE 5.8 mph - N/A   Clear
5:16 AM 48.2 °F - 44.6 °F 87% 30.17 in 10.0 mi SE 5.8 mph - N/A   Clear
5:35 AM 46.4 °F 43.5 °F 44.6 °F 93% 30.17 in 10.0 mi SE 5.8 mph - N/A   Clear
5:36 AM 46.4 °F 43.5 °F 44.6 °F 93% 30.17 in 10.0 mi SE 5.8 mph - N/A   Clear
5:55 AM 46.4 °F 43.5 °F 44.6 °F 93% 30.17 in 10.0 mi SE 5.8 mph - N/A   Clear
5:56 AM 46.4 °F 43.5 °F 44.6 °F 93% 30.17 in 10.0 mi SE 5.8 mph - N/A   Clear
6:15 AM 46.4 °F 43.5 °F 42.8 °F 87% 30.17 in 10.0 mi SSE 5.8 mph - N/A   Clear
6:17 AM 46.4 °F 43.5 °F 44.6 °F 93% 30.17 in 10.0 mi SSE 5.8 mph - N/A   Clear
6:35 AM 46.4 °F 44.3 °F 42.8 °F 87% 30.18 in 10.0 mi SSE 4.6 mph - N/A   Clear
6:55 AM 46.4 °F 43.5 °F 44.6 °F 93% 30.18 in 10.0 mi SSE 5.8 mph - N/A   Clear
6:57 AM 46.4 °F 43.5 °F 44.6 °F 93% 30.18 in 10.0 mi SSE 5.8 mph - N/A   Clear
7:15 AM 48.2 °F - 44.6 °F 87% 30.18 in 10.0 mi SSE 5.8 mph - N/A   Clear
7:16 AM 48.2 °F - 46.4 °F 93% 30.18 in 10.0 mi SSE 5.8 mph - N/A   Clear
7:35 AM 50.0 °F - 46.4 °F 87% 30.18 in 10.0 mi SSE 5.8 mph - N/A   Clear
7:36 AM 51.8 °F - 46.4 °F 82% 30.18 in 10.0 mi SSE 6.9 mph - N/A   Clear
7:55 AM 51.8 °F - 46.4 °F 82% 30.18 in 10.0 mi SSE 6.9 mph - N/A   Clear
7:57 AM 53.6 °F - 48.2 °F 82% 30.18 in 10.0 mi SSE 5.8 mph - N/A   Clear
8:15 AM 53.6 °F - 48.2 °F 82% 30.17 in 10.0 mi South 5.8 mph - N/A   Clear
8:16 AM 55.4 °F - 48.2 °F 77% 30.17 in 10.0 mi South 6.9 mph - N/A   Clear
8:35 AM 55.4 °F - 50.0 °F 82% 30.18 in 10.0 mi South 8.1 mph - N/A   Clear
8:36 AM 57.2 °F - 50.0 °F 77% 30.18 in 10.0 mi South 8.1 mph - N/A   Clear
8:55 AM 59.0 °F - 50.0 °F 72% 30.17 in 10.0 mi South 4.6 mph - N/A   Clear
8:56 AM 59.0 °F - 50.0 °F 72% 30.18 in 10.0 mi South 8.1 mph - N/A   Clear
9:15 AM 60.8 °F - 48.2 °F 63% 30.18 in 10.0 mi South 8.1 mph - N/A   Clear
9:16 AM 60.8 °F - 50.0 °F 68% 30.18 in 10.0 mi SSW 8.1 mph - N/A   Clear
9:35 AM 62.6 °F - 50.0 °F 63% 30.18 in 10.0 mi South 9.2 mph - N/A   Clear
9:36 AM 64.4 °F - 50.0 °F 59% 30.18 in 10.0 mi South 9.2 mph - N/A   Clear
9:55 AM 64.4 °F - 48.2 °F 56% 30.17 in 10.0 mi SSW 10.4 mph - N/A   Clear
9:57 AM 66.2 °F - 48.2 °F 52% 30.17 in 10.0 mi SSW 11.5 mph - N/A   Clear
10:15 AM 68.0 °F - 46.4 °F 46% 30.17 in 10.0 mi SSW 13.8 mph - N/A   Clear
10:16 AM 68.0 °F - 46.4 °F 46% 30.17 in 10.0 mi SSW 13.8 mph - N/A   Clear
10:35 AM 68.0 °F - 44.6 °F 43% 30.17 in 10.0 mi South 13.8 mph 20.7 mph N/A   Clear
10:36 AM 68.0 °F - 46.4 °F 46% 30.17 in 10.0 mi South 13.8 mph 20.7 mph N/A   Clear
10:55 AM 69.8 °F - 46.4 °F 43% 30.17 in 10.0 mi South 15.0 mph 20.7 mph N/A   Clear
10:59 AM 69.8 °F - 46.4 °F 43% 30.16 in 10.0 mi South 15.0 mph 20.7 mph N/A   Clear
11:15 AM 69.8 °F - 44.6 °F 40% 30.16 in 10.0 mi South 15.0 mph 19.6 mph N/A   Clear
11:16 AM 71.6 °F - 44.6 °F 38% 30.16 in 10.0 mi South 12.7 mph - N/A   Clear
11:35 AM 69.8 °F - 44.6 °F 40% 30.16 in 10.0 mi SSW 17.3 mph 23.0 mph N/A   Clear
11:36 AM 71.6 °F - 44.6 °F 38% 30.16 in 10.0 mi South 13.8 mph 23.0 mph N/A   Clear
11:55 AM 71.6 °F - 42.8 °F 35% 30.15 in 10.0 mi South 12.7 mph 19.6 mph N/A   Clear
11:56 AM 71.6 °F - 44.6 °F 38% 30.15 in 10.0 mi South 15.0 mph 20.7 mph N/A   Clear
12:15 PM 71.6 °F - 42.8 °F 35% 30.14 in 10.0 mi South 16.1 mph 23.0 mph N/A   Clear
12:16 PM 73.4 °F - 42.8 °F 33% 30.14 in 10.0 mi South 16.1 mph 23.0 mph N/A   Clear
12:35 PM 71.6 °F - 42.8 °F 35% 30.13 in 10.0 mi South 16.1 mph 20.7 mph N/A   Clear
12:36 PM 73.4 °F - 42.8 °F 33% 30.13 in 10.0 mi South 15.0 mph 20.7 mph N/A   Clear
12:55 PM 71.6 °F - 42.8 °F 35% 30.12 in 10.0 mi South 12.7 mph 19.6 mph N/A   Clear
12:58 PM 73.4 °F - 42.8 °F 33% 30.12 in 10.0 mi SSW 15.0 mph 19.6 mph N/A   Clear
1:15 PM 73.4 °F - 42.8 °F 33% 30.11 in 10.0 mi South 18.4 mph - N/A   Clear
1:16 PM 73.4 °F - 42.8 °F 33% 30.11 in 10.0 mi South 17.3 mph - N/A   Clear
1:35 PM 73.4 °F - 41.0 °F 31% 30.10 in 10.0 mi South 13.8 mph 23.0 mph N/A   Clear
1:37 PM 75.2 °F - 42.8 °F 31% 30.10 in 10.0 mi South 15.0 mph 23.0 mph N/A   Clear
1:55 PM 73.4 °F - 41.0 °F 31% 30.09 in 10.0 mi South 16.1 mph 24.2 mph N/A   Clear
1:56 PM 75.2 °F - 41.0 °F 29% 30.09 in 10.0 mi South 18.4 mph 24.2 mph N/A   Clear
2:15 PM 73.4 °F - 39.2 °F 29% 30.09 in 10.0 mi South 16.1 mph 23.0 mph N/A   Clear
2:16 PM 75.2 °F - 39.2 °F 27% 30.09 in 10.0 mi South 16.1 mph 23.0 mph N/A   Clear
2:35 PM 75.2 °F - 41.0 °F 29% 30.08 in 10.0 mi South 15.0 mph 20.7 mph N/A   Clear
2:36 PM 75.2 °F - 41.0 °F 29% 30.08 in 10.0 mi South 17.3 mph 20.7 mph N/A   Clear
2:55 PM 75.2 °F - 39.2 °F 27% 30.07 in 10.0 mi South 15.0 mph 23.0 mph N/A   Clear
2:56 PM 75.2 °F - 39.2 °F 27% 30.07 in 10.0 mi South 15.0 mph 23.0 mph N/A   Clear
3:15 PM 77.0 °F - 41.0 °F 28% 30.06 in 10.0 mi South 11.5 mph 24.2 mph N/A   Clear
3:16 PM 77.0 °F - 41.0 °F 28% 30.06 in 10.0 mi South 19.6 mph 24.2 mph N/A   Clear
3:35 PM 75.2 °F - 41.0 °F 29% 30.05 in 10.0 mi South 16.1 mph 24.2 mph N/A   Clear
3:36 PM 77.0 °F - 41.0 °F 28% 30.05 in 10.0 mi South 16.1 mph 24.2 mph N/A   Clear
3:55 PM 77.0 °F - 39.2 °F 26% 30.05 in 10.0 mi South 13.8 mph 23.0 mph N/A   Clear
4:15 PM 77.0 °F - 39.2 °F 26% 30.04 in 10.0 mi South 17.3 mph 21.9 mph N/A   Clear
4:16 PM 77.0 °F - 39.2 °F 26% 30.04 in 10.0 mi SSE 15.0 mph 21.9 mph N/A   Clear
4:35 PM 77.0 °F - 39.2 °F 26% 30.04 in 10.0 mi South 12.7 mph 19.6 mph N/A   Clear
4:36 PM 77.0 °F - 39.2 °F 26% 30.04 in 10.0 mi South 13.8 mph 20.7 mph N/A   Clear
4:55 PM 77.0 °F - 39.2 °F 26% 30.04 in 10.0 mi South 15.0 mph 19.6 mph N/A   Clear
4:56 PM 77.0 °F - 39.2 °F 26% 30.04 in 10.0 mi South 12.7 mph 19.6 mph N/A   Clear
5:15 PM 75.2 °F - 39.2 °F 27% 30.04 in 10.0 mi South 18.4 mph 21.9 mph N/A   Clear
5:16 PM 75.2 °F - 39.2 °F 27% 30.04 in 10.0 mi South 18.4 mph 24.2 mph N/A   Clear
5:35 PM 75.2 °F - 39.2 °F 27% 30.03 in 10.0 mi South 12.7 mph 21.9 mph N/A   Clear
5:36 PM 75.2 °F - 39.2 °F 27% 30.03 in 10.0 mi South 15.0 mph 21.9 mph N/A   Clear
5:55 PM 73.4 °F - 41.0 °F 31% 30.03 in 10.0 mi South 15.0 mph 18.4 mph N/A   Clear
5:56 PM 75.2 °F - 41.0 °F 29% 30.03 in 10.0 mi South 13.8 mph 18.4 mph N/A   Clear
6:15 PM 73.4 °F - 41.0 °F 31% 30.02 in 10.0 mi South 13.8 mph 19.6 mph N/A   Clear
6:18 PM 73.4 °F - 41.0 °F 31% 30.02 in 10.0 mi South 11.5 mph 19.6 mph N/A   Clear
6:35 PM 71.6 °F - 41.0 °F 33% 30.02 in 10.0 mi South 10.4 mph - N/A   Clear
6:36 PM 73.4 °F - 42.8 °F 33% 30.02 in 10.0 mi South 11.5 mph - N/A   Clear
6:56 PM 71.6 °F - 42.8 °F 35% 30.01 in 10.0 mi South 9.2 mph - N/A   Clear
7:15 PM 69.8 °F - 42.8 °F 38% 30.00 in 10.0 mi SSE 8.1 mph - N/A   Clear
7:17 PM 69.8 °F - 44.6 °F 40% 30.00 in 10.0 mi SSE 8.1 mph - N/A   Clear
7:35 PM 66.2 °F - 44.6 °F 46% 30.00 in 10.0 mi SSE 6.9 mph - N/A   Clear
7:36 PM 66.2 °F - 46.4 °F 49% 30.00 in 10.0 mi SSE 8.1 mph - N/A   Clear
7:55 PM 64.4 °F - 44.6 °F 49% 30.00 in 10.0 mi SSE 8.1 mph - N/A   Clear
7:56 PM 64.4 °F - 46.4 °F 52% 30.00 in 10.0 mi SSE 8.1 mph - N/A   Clear
8:15 PM 62.6 °F - 46.4 °F 55% 30.00 in 10.0 mi SSE 8.1 mph - N/A   Clear
8:17 PM 64.4 °F - 46.4 °F 52% 30.00 in 10.0 mi SSE 8.1 mph - N/A   Clear
8:35 PM 62.6 °F - 46.4 °F 55% 30.00 in 10.0 mi SSE 8.1 mph - N/A   Clear
8:55 PM 60.8 °F - 46.4 °F 59% 30.01 in 10.0 mi SSE 8.1 mph - N/A   Clear
8:56 PM 62.6 °F - 48.2 °F 59% 30.01 in 10.0 mi SSE 9.2 mph - N/A   Clear
9:15 PM 62.6 °F - 46.4 °F 55% 30.00 in 10.0 mi SSE 9.2 mph - N/A   Clear
9:16 PM 62.6 °F - 46.4 °F 55% 30.00 in 10.0 mi SSE 9.2 mph - N/A   Clear
9:35 PM 62.6 °F - 46.4 °F 55% 30.01 in 10.0 mi SSE 6.9 mph - N/A   Clear
9:36 PM 62.6 °F - 46.4 °F 55% 30.01 in 10.0 mi SSE 6.9 mph - N/A   Clear
9:55 PM 60.8 °F - 46.4 °F 59% 30.01 in 10.0 mi South 9.2 mph - N/A   Clear
9:57 PM 62.6 °F - 46.4 °F 55% 30.01 in 10.0 mi South 9.2 mph - N/A   Clear
10:15 PM 62.6 °F - 46.4 °F 55% 30.01 in 10.0 mi South 8.1 mph - N/A   Clear
10:16 PM 62.6 °F - 46.4 °F 55% 30.01 in 10.0 mi South 9.2 mph - N/A   Clear
10:35 PM 60.8 °F - 46.4 °F 59% 30.01 in 10.0 mi South 8.1 mph - N/A   Clear
10:37 PM 60.8 °F - 46.4 °F 59% 30.01 in 10.0 mi South 9.2 mph - N/A   Clear
10:57 PM 60.8 °F - 46.4 °F 59% 30.02 in 10.0 mi South 9.2 mph - N/A   Clear
11:15 PM 59.0 °F - 46.4 °F 63% 30.02 in 10.0 mi South 8.1 mph - N/A   Clear
11:17 PM 59.0 °F - 46.4 °F 63% 30.02 in 10.0 mi South 8.1 mph - N/A   Clear
11:35 PM 57.2 °F - 46.4 °F 67% 30.02 in 10.0 mi South 8.1 mph - N/A   Clear
11:37 PM 59.0 °F - 46.4 °F 63% 30.02 in 10.0 mi South 8.1 mph - N/A   Clear
11:55 PM 57.2 °F - 46.4 °F 67% 30.02 in 10.0 mi South 8.1 mph - N/A   Clear
11:56 PM 57.2 °F - 46.4 °F 67% 30.02 in 10.0 mi South 6.9 mph - N/A   Clear